Location: Newport
(44.6370°N, 124.0520°W)
Time: 11:28:39
(UTC-07:00)

N. Korean satellite - Pass Details

Date: 13 October 2017
Orbit: 459 x 517 km, 97.2° (Epoch: 18 October)

Event Time Altitude Azimuth Distance (km) Brightness Sun altitude
Rises 19:56:01 0° 192° (SSW) 2,549 10.3 -15.3°
Reaches altitude 10° 19:58:20 10° 206° (SSW) 1,663 9.5 -15.7°
Maximum altitude 20:01:23 26° 264° (W) 978 8.9 -16.2°
Drops below altitude 10° 20:04:24 10° 323° (NW) 1,649 9.8 -16.8°
Sets 20:06:41 0° 336° (NNW) 2,523 10.6 -17.2°
